Home   Weather   Edinburgh   Past weeks

Flag for United Kingdom Past Weather in Edinburgh, Scotland, United Kingdom — Yesterday and Last 2 Weeks

Now
36 °F

Passing clouds.


Feels Like: 30 °F
Forecast: N/A
Wind: 7 mph from Southwest

Location: Edinburgh Airport

Current Time: Feb 23, 2017 at 6:25:45 pm

Latest Report: Feb 23, 2017 at 5:50 pm


Visibility: N/A

Pressure: 29.50 "Hg

Humidity: 93%

Dew Point: 34 °F

Location of EdinburghLocation

Past Weather in Edinburgh — Graph

°F

Edinburgh Temperature Yesterday

Maximum temperature yesterday: 48 °F (at 12:20 pm)
Minimum temperature yesterday: 39 °F (at 8:20 pm)
Average temperature yesterday: 43 °F

High & Low Weather Summary for the Past Weeks

 TemperatureHumidityPressure
High55 °F (Feb 20, 11:50 am)100% (Feb 17, 2:20 am)30.60 "Hg (Feb 17, 2:20 am)
Low30 °F (Feb 17, 7:20 am)54% (Feb 22, 1:50 pm)28.94 "Hg (Feb 23, 7:20 am)
Average43 °F84%30.11 "Hg
* Reported Feb 8 5:20 pm — Feb 23 5:20 pm, Edinburgh, Weather by CustomWeather, © 2017

Note: Actual official high and low records may vary slightly from our data, if they occured in-between our weather recording intervals... More about our weather records

Advertising

Edinburgh Weather History for the Previous 24 Hours

Scroll right to see more
 ConditionsComfort  
Time TempWeatherWind HumidityBarometerVisibility
5:20 pm
Thu, Feb 23
37 °FLight rain. Cloudy.7 mph87%29.47 "HgN/A
4:50 pm39 °FPassing clouds.7 mph87%29.45 "HgN/A
4:20 pm39 °FScattered clouds.7 mph87%29.42 "HgN/A
3:50 pm39 °FScattered clouds.7 mph87%29.42 "HgN/A
3:20 pm39 °FScattered clouds.7 mph87%29.39 "HgN/A
2:50 pm37 °FLight rain. Partly sunny.7 mph93%29.36 "HgN/A
2:20 pm37 °FLight rain. Partly sunny.7 mph93%29.33 "HgN/A
1:50 pm37 °FLight rain. Partly sunny.9 mph93%29.30 "HgN/A
1:20 pm37 °FLight rain. Partly sunny.10 mph93%29.27 "HgN/A
12:50 pm37 °FOvercast.9 mph93%29.24 "HgN/A
12:20 pm37 °FLow clouds.13 mph87%29.18 "HgN/A
11:50 am37 °FLight rain. Partly sunny.13 mph93%29.15 "HgN/A
11:20 am36 °FLight rain. Low clouds.13 mph93%29.12 "Hg4 mi
10:50 am36 °FLight rain. Low clouds.13 mph93%29.06 "Hg1 mi
10:20 am37 °FLight rain. Low clouds.17 mph93%29.03 "Hg3 mi
9:50 am37 °FLight rain. Partly sunny.24 mph93%29.00 "Hg2 mi
9:20 am37 °FLight rain. Low clouds.25 mph93%28.97 "Hg4 mi
8:50 am36 °FLight rain. Mostly cloudy.25 mph93%28.97 "Hg2 mi
8:20 am37 °FLight rain. Partly sunny.25 mph93%28.94 "Hg2 mi
7:50 am37 °FLight rain. Low clouds.25 mph93%28.94 "Hg3 mi
7:20 am36 °FRain. Low clouds.23 mph93%28.94 "Hg3 mi
6:50 am36 °FRain. Low clouds.23 mph100%28.97 "Hg3 mi
6:20 am36 °FLight rain. Low clouds.20 mph93%28.97 "Hg2 mi
5:50 am36 °FLight rain. Low clouds.20 mph100%29.00 "HgN/A
5:20 am36 °FLight rain. Passing clouds.21 mph100%29.03 "HgN/A
4:50 am36 °FLight rain. Mostly cloudy.17 mph93%29.09 "Hg4 mi
4:20 am34 °FLight rain. Low clouds.14 mph93%29.15 "Hg4 mi
3:50 am36 °FLight rain. Low clouds.14 mph93%29.21 "Hg4 mi
3:20 am36 °FLight rain. Mostly cloudy.13 mph93%29.24 "Hg4 mi
2:50 am36 °FLight rain. Low clouds.12 mph93%29.27 "Hg3 mi
2:20 am37 °FLight rain. Passing clouds.14 mph87%29.30 "Hg4 mi
1:50 am39 °FLight rain. Mostly cloudy.12 mph81%29.33 "Hg6 mi
1:20 am41 °FLight rain. Mostly cloudy.5 mph81%29.36 "HgN/A
12:50 am41 °FPassing clouds.5 mph87%29.39 "HgN/A
12:20 am39 °FPassing clouds.2 mph87%29.42 "HgN/A
11:50 pm
Wed, Feb 22
41 °FClear.2 mph87%29.42 "Hg10 mi
11:20 pm41 °FClear.3 mph87%29.45 "Hg10 mi
10:50 pm41 °FClear.8 mph81%29.47 "Hg10 mi
10:20 pm41 °FPassing clouds.5 mph81%29.47 "HgN/A
9:50 pm41 °FPassing clouds.7 mph81%29.47 "HgN/A
9:20 pm41 °FClear.8 mph81%29.50 "Hg10 mi
8:50 pm41 °FClear.8 mph81%29.50 "Hg10 mi
8:20 pm39 °FClear.7 mph81%29.50 "Hg10 mi
7:50 pm41 °FClear.9 mph76%29.50 "Hg10 mi
7:20 pm41 °FClear.9 mph76%29.50 "Hg10 mi
6:50 pm41 °FClear.9 mph76%29.50 "Hg10 mi
6:20 pm43 °FClear.9 mph71%29.53 "Hg10 mi
Weather by CustomWeather, © 2017

See weather overviewHow to use our weather pages